Weather History for KOLE - December, 2012

Change the Weather History Date:

Sunday, December 23, 2012

  Actual Average (KBFD) Record (KBFD)
Temperature  
Mean Temperature 26 °F 23 °F  
Max Temperature 30 °F 31 °F 56 °F (1990)
Min Temperature 21 °F 16 °F -13 °F (1989)
Degree Days  
Heating Degree Days 40 36  
Month to date heating degree days 767  
Since 1 July heating degree days 2602  
Cooling Degree Days 0 0  
Month to date cooling degree days 0  
Year to date cooling degree days 193  
Moisture  
Dew Point 21 °F    
Average Humidity 77    
Maximum Humidity 93    
Minimum Humidity 55    
Precipitation  
Precipitation 0.00 in 0.10 in 1.27 in (2004)
Month to date precipitation 2.58  
Year to date precipitation 43.64  
Sea Level Pressure  
Sea Level Pressure 29.82 in    
Wind  
Wind Speed 7 mph (West)    
Max Wind Speed 10 mph    
Max Gust Speed 21 mph    
Visibility 10 miles    
Events Snow    
T = Trace of Precipitation, MM = Missing Value Source: NWS Daily Summary

Daily Weather History Graph

Daily Weather History Graph

Search for Another Location

Airport or City:

Trip Planner

Search our weather history database for the weather conditions in past years. The results will help you decide how hot, cold, wet, or windy it might be!

Date:

Astronomy

Dec. 23, 2012 Rise Set
Actual Time 7:40 AM EST 4:45 PM EST
Civil Twilight 7:08 AM EST 5:17 PM EST
Nautical Twilight 6:32 AM EST 5:53 PM EST
Astronomical Twilight 5:58 AM EST 6:27 PM EST
Moon 1:37 PM EST (12/23) 3:18 AM EST (12/23)
Length of Visible Light 10h 09m
Length of Day
9h 05m
Waxing Gibbous, 81% of the Moon is Illuminated
Dec 23
Waxing Gibbous
Dec 28
Full
Jan 4
Last Quarter
Jan 11
New
Jan 18
First Quarter

Hourly Weather History & Observations

Time (EST) Temp. Windchill Dew Point Humidity Pressure Visibility Wind Dir Wind Speed Gust Speed Precip Events Conditions
12:15 AM 26.6 °F 18.2 °F 23.0 °F 86% 29.85 in 7.0 mi West 8.1 mph - N/A Snow Light Snow
12:35 AM 26.6 °F 20.0 °F 23.0 °F 86% 29.84 in 10.0 mi West 5.8 mph - N/A   Overcast
12:55 AM 26.6 °F 21.2 °F 23.0 °F 86% 29.84 in 7.0 mi West 4.6 mph - N/A   Overcast
1:15 AM 26.6 °F 19.1 °F 23.0 °F 86% 29.84 in 7.0 mi West 6.9 mph - N/A Snow Light Snow
1:35 AM 26.6 °F 18.2 °F 23.0 °F 86% 29.84 in 5.0 mi West 8.1 mph - N/A Snow Light Snow
1:55 AM 26.6 °F 20.0 °F 23.0 °F 86% 29.84 in 10.0 mi West 5.8 mph - N/A   Overcast
2:15 AM 26.6 °F 20.0 °F 23.0 °F 86% 29.84 in 5.0 mi West 5.8 mph - N/A Snow Light Snow
2:35 AM 26.6 °F 21.2 °F 23.0 °F 86% 29.84 in 10.0 mi West 4.6 mph - N/A Snow Light Snow
2:55 AM 26.6 °F 18.2 °F 23.0 °F 86% 29.85 in 10.0 mi WSW 8.1 mph 17.3 mph N/A   Overcast
3:15 AM 26.6 °F 20.0 °F 23.0 °F 86% 29.84 in 10.0 mi WSW 5.8 mph - N/A   Overcast
3:35 AM 26.6 °F 21.2 °F 23.0 °F 86% 29.83 in 10.0 mi WSW 4.6 mph - N/A   Overcast
3:55 AM 26.6 °F 20.0 °F 23.0 °F 86% 29.83 in 10.0 mi West 5.8 mph - N/A   Overcast
4:15 AM 26.6 °F 19.1 °F 23.0 °F 86% 29.82 in 10.0 mi West 6.9 mph - N/A   Overcast
4:35 AM 26.6 °F 19.1 °F 24.8 °F 93% 29.82 in 10.0 mi WSW 6.9 mph - N/A   Overcast
4:55 AM 26.6 °F 20.0 °F 24.8 °F 93% 29.82 in 7.0 mi WSW 5.8 mph - N/A   Overcast
5:15 AM 26.6 °F 21.2 °F 23.0 °F 86% 29.82 in 10.0 mi West 4.6 mph - N/A   Overcast
5:35 AM 26.6 °F 20.0 °F 23.0 °F 86% 29.82 in 10.0 mi WSW 5.8 mph - N/A   Overcast
5:55 AM 26.6 °F 21.2 °F 23.0 °F 86% 29.82 in 10.0 mi WSW 4.6 mph - N/A   Overcast
6:15 AM 26.6 °F 19.1 °F 23.0 °F 86% 29.82 in 10.0 mi WSW 6.9 mph - N/A   Overcast
6:35 AM 24.8 °F 16.9 °F 21.2 °F 86% 29.82 in 10.0 mi WSW 6.9 mph - N/A   Overcast
6:55 AM 24.8 °F 20.5 °F 21.2 °F 86% 29.82 in 10.0 mi West 3.5 mph - N/A   Overcast
7:15 AM 23.0 °F 14.7 °F 21.2 °F 93% 29.81 in 10.0 mi WSW 6.9 mph - N/A   Overcast
7:55 AM 23.0 °F 13.9 °F 19.4 °F 86% 29.81 in 10.0 mi SW 8.1 mph - N/A   Overcast
8:15 AM 23.0 °F 14.7 °F 19.4 °F 86% 29.81 in 10.0 mi WSW 6.9 mph - N/A   Overcast
8:35 AM 21.2 °F 11.7 °F 19.4 °F 93% 29.80 in 10.0 mi SW 8.1 mph - N/A   Overcast
8:55 AM 21.2 °F 11.7 °F 17.6 °F 86% 29.81 in 10.0 mi SW 8.1 mph - N/A   Overcast
9:15 AM 23.0 °F 14.7 °F 17.6 °F 80% 29.80 in 10.0 mi WSW 6.9 mph - N/A   Scattered Clouds
9:35 AM 23.0 °F 17.0 °F 17.6 °F 80% 29.80 in 10.0 mi WSW 4.6 mph - N/A   Clear
9:55 AM 23.0 °F 17.0 °F 17.6 °F 80% 29.80 in 10.0 mi WSW 4.6 mph - N/A   Clear
10:15 AM 24.8 °F 17.9 °F 14.0 °F 64% 29.80 in 10.0 mi WSW 5.8 mph - N/A   Clear
10:35 AM 26.6 °F 19.1 °F 14.0 °F 59% 29.80 in 10.0 mi West 6.9 mph - N/A   Clear
10:55 AM 26.6 °F 20.0 °F 14.0 °F 59% 29.80 in 10.0 mi West 5.8 mph - N/A   Clear
11:15 AM 28.4 °F 19.7 °F 14.0 °F 55% 29.78 in 10.0 mi WSW 9.2 mph 17.3 mph N/A   Clear
11:35 AM 28.4 °F 20.4 °F 14.0 °F 55% 29.78 in 10.0 mi West 8.1 mph - N/A   Clear
11:55 AM 28.4 °F 22.2 °F 14.0 °F 55% 29.78 in 10.0 mi West 5.8 mph - N/A   Clear
12:15 PM 28.4 °F 21.2 °F 14.0 °F 55% 29.78 in 10.0 mi West 6.9 mph - N/A   Clear
12:35 PM 30.2 °F 24.3 °F 15.8 °F 55% 29.77 in 10.0 mi West 5.8 mph - N/A   Clear
12:55 PM 30.2 °F 25.4 °F 17.6 °F 60% 29.75 in 10.0 mi West 4.6 mph 16.1 mph N/A   Clear
1:15 PM 30.2 °F 23.4 °F 17.6 °F 60% 29.75 in 10.0 mi WSW 6.9 mph - N/A   Clear
1:35 PM 30.2 °F 23.4 °F 17.6 °F 60% 29.75 in 10.0 mi West 6.9 mph 18.4 mph N/A   Clear
1:55 PM 30.2 °F 23.4 °F 19.4 °F 64% 29.74 in 10.0 mi WSW 6.9 mph - N/A   Clear
2:15 PM 30.2 °F 21.9 °F 17.6 °F 60% 29.75 in 10.0 mi WSW 9.2 mph - N/A   Clear
2:35 PM 30.2 °F 22.6 °F 19.4 °F 64% 29.76 in 10.0 mi West 8.1 mph - N/A   Clear
2:55 PM 30.2 °F 21.9 °F 19.4 °F 64% 29.76 in 10.0 mi WSW 9.2 mph - N/A   Scattered Clouds
3:15 PM 30.2 °F 24.3 °F 19.4 °F 64% 29.77 in 10.0 mi West 5.8 mph - N/A   Scattered Clouds
3:35 PM 30.2 °F 21.9 °F 19.4 °F 64% 29.78 in 10.0 mi WSW 9.2 mph - N/A   Scattered Clouds
3:55 PM 28.4 °F 19.1 °F 19.4 °F 69% 29.78 in 10.0 mi West 10.4 mph - N/A   Mostly Cloudy
4:15 PM 28.4 °F 20.4 °F 21.2 °F 74% 29.79 in 10.0 mi WSW 8.1 mph - N/A   Overcast
4:35 PM 28.4 °F 22.2 °F 21.2 °F 74% 29.79 in 10.0 mi WSW 5.8 mph - N/A   Overcast
4:55 PM 28.4 °F 22.2 °F 21.2 °F 74% 29.79 in 10.0 mi WSW 5.8 mph - N/A   Overcast
5:15 PM 28.4 °F 22.2 °F 23.0 °F 80% 29.80 in 10.0 mi WSW 5.8 mph - N/A   Overcast
5:35 PM 28.4 °F 21.2 °F 23.0 °F 80% 29.80 in 10.0 mi West 6.9 mph - N/A   Overcast
5:55 PM 28.4 °F 22.2 °F 23.0 °F 80% 29.81 in 10.0 mi West 5.8 mph - N/A   Overcast
6:15 PM 28.4 °F 20.4 °F 23.0 °F 80% 29.82 in 10.0 mi West 8.1 mph - N/A   Overcast
6:35 PM 28.4 °F 21.2 °F 23.0 °F 80% 29.82 in 10.0 mi West 6.9 mph - N/A   Overcast
6:55 PM 28.4 °F 21.2 °F 21.2 °F 74% 29.83 in 10.0 mi WNW 6.9 mph - N/A   Overcast
7:15 PM 28.4 °F 22.2 °F 21.2 °F 74% 29.84 in 10.0 mi West 5.8 mph 19.6 mph N/A   Overcast
7:35 PM 28.4 °F 22.2 °F 21.2 °F 74% 29.85 in 10.0 mi WNW 5.8 mph - N/A   Overcast
7:55 PM 28.4 °F 22.2 °F 21.2 °F 74% 29.85 in 10.0 mi West 5.8 mph 17.3 mph N/A   Overcast
8:15 PM 28.4 °F 20.4 °F 21.2 °F 74% 29.85 in 10.0 mi West 8.1 mph - N/A   Overcast
8:35 PM 28.4 °F 20.4 °F 21.2 °F 74% 29.85 in 10.0 mi West 8.1 mph - N/A   Overcast
8:55 PM 28.4 °F 20.4 °F 23.0 °F 80% 29.86 in 10.0 mi West 8.1 mph 17.3 mph N/A   Overcast
9:15 PM 28.4 °F 23.3 °F 23.0 °F 80% 29.86 in 10.0 mi West 4.6 mph - N/A   Overcast
9:35 PM 28.4 °F 22.2 °F 21.2 °F 74% 29.87 in 10.0 mi West 5.8 mph - N/A   Overcast
9:55 PM 28.4 °F 21.2 °F 21.2 °F 74% 29.88 in 10.0 mi WNW 6.9 mph - N/A   Overcast
10:15 PM 26.6 °F 17.5 °F 23.0 °F 86% 29.89 in 10.0 mi WNW 9.2 mph - N/A   Overcast
10:35 PM 26.6 °F 17.5 °F 23.0 °F 86% 29.90 in 10.0 mi WNW 9.2 mph 19.6 mph N/A   Overcast
10:55 PM 26.6 °F 20.0 °F 23.0 °F 86% 29.91 in 10.0 mi WNW 5.8 mph - N/A   Overcast
11:15 PM 26.6 °F 20.0 °F 21.2 °F 80% 29.91 in 10.0 mi WNW 5.8 mph - N/A   Overcast
11:35 PM 26.6 °F 17.5 °F 21.2 °F 80% 29.91 in 10.0 mi West 9.2 mph - N/A   Overcast
11:55 PM 26.6 °F 19.1 °F 19.4 °F 74% 29.91 in 10.0 mi WNW 6.9 mph 20.7 mph N/A   Overcast